Time,TemperatureF,DewpointF,PressureIn,WindDirection,WindDirectionDegrees,WindSpeedMPH,WindSpeedGustMPH,Humidity,HourlyPrecipIn,Conditions,Clouds,dailyrainin,SolarRadiationWatts/m^2,SoftwareType,DateUTC
2013-05-12 00:01:00,57.0,43.0,-100.00,SSW,194,2.0,6.0,59,0.00,,,0.00,0.000000,,2013-05-12 06:01:00,
2013-05-12 00:11:00,57.0,43.0,-100.00,SSW,194,2.0,6.0,59,0.00,,,0.00,0.000000,,2013-05-12 06:11:00,
2013-05-12 00:42:00,54.0,41.0,-100.00,SSE,166,2.0,5.0,62,0.00,,,0.00,0.000000,,2013-05-12 06:42:00,
2013-05-12 00:52:00,54.0,41.0,-100.00,SSE,166,2.0,5.0,62,0.00,,,0.00,0.000000,,2013-05-12 06:52:00,
2013-05-12 01:01:00,54.0,41.0,-100.00,SSE,166,2.0,5.0,62,0.00,,,0.00,0.000000,,2013-05-12 07:01:00,
2013-05-12 01:11:00,54.0,41.0,-100.00,SSE,166,2.0,5.0,62,0.00,,,0.00,0.000000,,2013-05-12 07:11:00,
2013-05-12 02:32:00,47.0,42.0,-100.00,NNE,29,2.0,5.0,83,-99.99,,,0.00,0.000000,,2013-05-12 08:32:00,
2013-05-12 02:42:00,47.0,42.0,-100.00,NNE,29,2.0,5.0,83,-99.99,,,0.00,0.000000,,2013-05-12 08:42:00,
2013-05-12 02:53:00,47.0,42.0,-100.00,NNE,29,2.0,5.0,83,-99.99,,,0.00,0.000000,,2013-05-12 08:53:00,
2013-05-12 03:01:00,47.0,42.0,-100.00,NNE,29,2.0,5.0,83,-99.99,,,0.00,0.000000,,2013-05-12 09:01:00,
2013-05-12 03:11:00,47.0,42.0,-100.00,NNE,29,2.0,5.0,83,-99.99,,,0.00,0.000000,,2013-05-12 09:11:00,
2013-05-12 03:33:00,49.0,43.0,-100.00,NE,49,2.0,4.0,80,0.00,,,0.00,0.000000,,2013-05-12 09:33:00,
2013-05-12 03:43:00,49.0,43.0,-100.00,NE,49,2.0,4.0,80,0.00,,,0.00,0.000000,,2013-05-12 09:43:00,
2013-05-12 03:53:00,49.0,43.0,-100.00,NE,49,2.0,4.0,80,0.00,,,0.00,0.000000,,2013-05-12 09:53:00,
2013-05-12 04:03:00,49.0,43.0,-100.00,NE,49,2.0,4.0,80,0.00,,,0.00,0.000000,,2013-05-12 10:03:00,
2013-05-12 04:12:00,49.0,43.0,-100.00,NE,49,2.0,4.0,80,0.00,,,0.00,0.000000,,2013-05-12 10:12:00,
2013-05-12 04:33:00,47.0,43.0,-100.00,ENE,67,0.0,4.0,86,0.00,,,0.00,0.000000,,2013-05-12 10:33:00,
2013-05-12 04:42:00,47.0,43.0,-100.00,ENE,67,0.0,4.0,86,0.00,,,0.00,0.000000,,2013-05-12 10:42:00,
2013-05-12 04:52:00,47.0,43.0,-100.00,ENE,67,0.0,4.0,86,0.00,,,0.00,0.000000,,2013-05-12 10:52:00,
2013-05-12 05:02:00,47.0,43.0,-100.00,ENE,67,0.0,4.0,86,0.00,,,0.00,0.000000,,2013-05-12 11:02:00,
2013-05-12 05:11:00,47.0,43.0,-100.00,ENE,67,0.0,4.0,86,0.00,,,0.00,0.000000,,2013-05-12 11:11:00,
2013-05-12 05:32:00,46.0,43.0,-100.00,NE,42,1.0,4.0,88,0.00,,,0.00,0.000000,,2013-05-12 11:32:00,
2013-05-12 05:42:00,46.0,43.0,-100.00,NE,42,1.0,4.0,88,0.00,,,0.00,0.000000,,2013-05-12 11:42:00,
2013-05-12 05:52:00,46.0,43.0,-100.00,NE,42,1.0,4.0,88,0.00,,,0.00,0.000000,,2013-05-12 11:52:00,
2013-05-12 06:01:00,46.0,43.0,-100.00,NE,42,1.0,4.0,88,0.00,,,0.00,0.000000,,2013-05-12 12:01:00,
2013-05-12 06:11:00,46.0,43.0,-100.00,NE,42,1.0,4.0,88,0.00,,,0.00,0.000000,,2013-05-12 12:11:00,
2013-05-12 07:42:00,47.0,44.0,-100.00,NNE,25,2.0,5.0,88,-99.99,,,0.00,40.000000,,2013-05-12 13:42:00,
2013-05-12 07:52:00,47.0,44.0,-100.00,NNE,25,2.0,5.0,88,-99.99,,,0.00,40.000000,,2013-05-12 13:52:00,
2013-05-12 08:01:00,47.0,44.0,-100.00,NNE,25,2.0,5.0,88,-99.99,,,0.00,40.000000,,2013-05-12 14:01:00,
2013-05-12 08:11:00,47.0,44.0,-100.00,NNE,25,2.0,5.0,88,-99.99,,,0.00,40.000000,,2013-05-12 14:11:00,
2013-05-12 08:42:00,55.0,47.0,-100.00,NNW,342,2.0,5.0,74,0.00,,,0.00,172.000000,,2013-05-12 14:42:00,
2013-05-12 08:52:00,55.0,47.0,-100.00,NNW,342,2.0,5.0,74,0.00,,,0.00,172.000000,,2013-05-12 14:52:00,
2013-05-12 09:01:00,55.0,47.0,-100.00,NNW,342,2.0,5.0,74,0.00,,,0.00,172.000000,,2013-05-12 15:01:00,
2013-05-12 09:11:00,55.0,47.0,-100.00,NNW,342,2.0,5.0,74,0.00,,,0.00,172.000000,,2013-05-12 15:11:00,
2013-05-12 09:34:00,64.0,49.0,-100.00,NNW,338,2.0,4.0,59,0.00,,,-99.99,350.000000,,2013-05-12 15:34:00,
2013-05-12 10:02:00,64.0,49.0,-100.00,NNW,338,2.0,4.0,59,0.00,,,-99.99,350.000000,,2013-05-12 16:02:00,
2013-05-12 10:12:00,64.0,49.0,-100.00,NNW,338,2.0,4.0,59,0.00,,,-99.99,350.000000,,2013-05-12 16:12:00,
2013-05-12 10:33:00,68.0,43.0,-100.00,West,261,4.0,6.0,40,0.00,,,0.00,561.000000,,2013-05-12 16:33:00,
2013-05-12 10:42:00,68.0,43.0,-100.00,West,261,4.0,6.0,40,0.00,,,0.00,561.000000,,2013-05-12 16:42:00,
2013-05-12 10:52:00,68.0,43.0,-100.00,West,261,4.0,6.0,40,0.00,,,0.00,561.000000,,2013-05-12 16:52:00,
2013-05-12 11:01:00,68.0,43.0,-100.00,West,261,4.0,6.0,40,0.00,,,0.00,561.000000,,2013-05-12 17:01:00,
2013-05-12 11:11:00,68.0,43.0,-100.00,West,261,4.0,6.0,40,0.00,,,0.00,561.000000,,2013-05-12 17:11:00,
2013-05-12 11:42:00,73.0,47.0,-100.00,NNW,333,3.0,6.0,40,0.00,,,0.00,603.000000,,2013-05-12 17:42:00,
2013-05-12 11:52:00,73.0,47.0,-100.00,NNW,333,3.0,6.0,40,0.00,,,0.00,603.000000,,2013-05-12 17:52:00,
2013-05-12 12:01:00,73.0,47.0,-100.00,NNW,333,3.0,6.0,40,0.00,,,0.00,603.000000,,2013-05-12 18:01:00,
2013-05-12 12:12:00,73.0,47.0,-100.00,NNW,333,3.0,6.0,40,0.00,,,0.00,603.000000,,2013-05-12 18:12:00,
2013-05-12 12:32:00,78.0,47.0,-100.00,North,349,2.0,5.0,33,0.00,,,0.00,703.000000,,2013-05-12 18:32:00,
2013-05-12 12:42:00,78.0,47.0,-100.00,North,349,2.0,5.0,33,0.00,,,0.00,703.000000,,2013-05-12 18:42:00,
2013-05-12 12:52:00,78.0,47.0,-100.00,North,349,2.0,5.0,33,0.00,,,0.00,703.000000,,2013-05-12 18:52:00,
2013-05-12 13:01:00,78.0,47.0,-100.00,North,349,2.0,5.0,33,0.00,,,0.00,703.000000,,2013-05-12 19:01:00,
2013-05-12 13:11:00,78.0,47.0,-100.00,North,349,2.0,5.0,33,0.00,,,0.00,703.000000,,2013-05-12 19:11:00,
2013-05-12 13:32:00,84.0,46.0,-100.00,SW,225,4.0,7.0,27,0.00,,,0.00,870.000000,,2013-05-12 19:32:00,
2013-05-12 13:52:00,84.0,46.0,-100.00,SW,225,4.0,7.0,27,0.00,,,0.00,870.000000,,2013-05-12 19:52:00,
2013-05-12 14:02:00,84.0,46.0,-100.00,SW,225,4.0,7.0,27,0.00,,,0.00,870.000000,,2013-05-12 20:02:00,
2013-05-12 14:11:00,84.0,46.0,-100.00,SW,225,4.0,7.0,27,0.00,,,0.00,870.000000,,2013-05-12 20:11:00,
2013-05-12 14:42:00,88.0,41.0,-100.00,SSW,207,7.0,11.0,19,0.00,,,0.00,966.000000,,2013-05-12 20:42:00,
2013-05-12 14:52:00,88.0,41.0,-100.00,SSW,207,7.0,11.0,19,0.00,,,0.00,966.000000,,2013-05-12 20:52:00,
2013-05-12 15:01:00,88.0,41.0,-100.00,SSW,207,7.0,11.0,19,0.00,,,0.00,966.000000,,2013-05-12 21:01:00,
2013-05-12 15:11:00,88.0,41.0,-100.00,SSW,207,7.0,11.0,19,0.00,,,0.00,966.000000,,2013-05-12 21:11:00,
2013-05-12 15:33:00,88.0,36.0,-100.00,SW,231,7.0,14.0,16,-99.99,,,0.00,885.000000,,2013-05-12 21:33:00,
2013-05-12 15:42:00,88.0,36.0,-100.00,SW,231,7.0,14.0,16,-99.99,,,0.00,885.000000,,2013-05-12 21:42:00,
2013-05-12 15:53:00,88.0,36.0,-100.00,SW,231,7.0,14.0,16,-99.99,,,0.00,885.000000,,2013-05-12 21:53:00,
2013-05-12 16:02:00,88.0,36.0,-100.00,SW,231,7.0,14.0,16,-99.99,,,0.00,885.000000,,2013-05-12 22:02:00,
2013-05-12 16:12:00,88.0,36.0,-100.00,SW,231,7.0,14.0,16,-99.99,,,0.00,885.000000,,2013-05-12 22:12:00,
2013-05-12 16:33:00,88.0,36.0,-100.00,WSW,254,10.0,21.0,16,0.00,,,0.00,700.000000,,2013-05-12 22:33:00,
2013-05-12 16:42:00,88.0,36.0,-100.00,WSW,254,10.0,21.0,16,0.00,,,0.00,700.000000,,2013-05-12 22:42:00,
2013-05-12 16:52:00,88.0,36.0,-100.00,WSW,254,10.0,21.0,16,0.00,,,0.00,700.000000,,2013-05-12 22:52:00,
2013-05-12 17:02:00,88.0,36.0,-100.00,WSW,254,10.0,21.0,16,0.00,,,0.00,700.000000,,2013-05-12 23:02:00,
2013-05-12 17:11:00,88.0,36.0,-100.00,WSW,254,10.0,21.0,16,0.00,,,0.00,700.000000,,2013-05-12 23:11:00,
2013-05-12 17:42:00,88.0,38.0,-100.00,WSW,246,10.0,17.0,17,0.00,,,0.00,854.000000,,2013-05-12 23:42:00,
2013-05-12 17:52:00,88.0,38.0,-100.00,WSW,246,10.0,17.0,17,0.00,,,0.00,854.000000,,2013-05-12 23:52:00,
2013-05-12 18:01:00,88.0,38.0,-100.00,WSW,246,10.0,17.0,17,0.00,,,0.00,854.000000,,2013-05-13 00:01:00,
2013-05-12 18:11:00,88.0,38.0,-100.00,WSW,246,10.0,17.0,17,0.00,,,0.00,854.000000,,2013-05-13 00:11:00,
2013-05-12 19:42:00,82.0,37.0,-100.00,West,270,6.0,15.0,20,-99.99,,,0.00,328.000000,,2013-05-13 01:42:00,
2013-05-12 19:52:00,82.0,37.0,-100.00,West,270,6.0,15.0,20,-99.99,,,0.00,328.000000,,2013-05-13 01:52:00,
2013-05-12 20:01:00,82.0,37.0,-100.00,West,270,6.0,15.0,20,-99.99,,,0.00,328.000000,,2013-05-13 02:01:00,
2013-05-12 20:11:00,82.0,37.0,-100.00,West,270,6.0,15.0,20,-99.99,,,0.00,328.000000,,2013-05-13 02:11:00,
2013-05-12 20:32:00,78.0,40.0,-100.00,West,260,6.0,13.0,26,0.00,,,0.00,123.000000,,2013-05-13 02:32:00,
2013-05-12 20:42:00,78.0,40.0,-100.00,West,260,6.0,13.0,26,0.00,,,0.00,123.000000,,2013-05-13 02:42:00,
2013-05-12 20:52:00,78.0,40.0,-100.00,West,260,6.0,13.0,26,0.00,,,0.00,123.000000,,2013-05-13 02:52:00,
2013-05-12 21:01:00,78.0,40.0,-100.00,West,260,6.0,13.0,26,0.00,,,0.00,123.000000,,2013-05-13 03:01:00,
2013-05-12 21:11:00,78.0,40.0,-100.00,West,260,6.0,13.0,26,0.00,,,0.00,123.000000,,2013-05-13 03:11:00,
2013-05-12 21:33:00,73.0,44.0,-100.00,West,266,4.0,8.0,35,0.00,,,0.00,24.000000,,2013-05-13 03:33:00,
2013-05-12 21:42:00,73.0,44.0,-100.00,West,266,4.0,8.0,35,0.00,,,0.00,24.000000,,2013-05-13 03:42:00,
2013-05-12 21:53:00,73.0,44.0,-100.00,West,266,4.0,8.0,35,0.00,,,0.00,24.000000,,2013-05-13 03:53:00,
2013-05-12 22:02:00,73.0,44.0,-100.00,West,266,4.0,8.0,35,0.00,,,0.00,24.000000,,2013-05-13 04:02:00,
2013-05-12 22:12:00,73.0,44.0,-100.00,West,266,4.0,8.0,35,0.00,,,0.00,24.000000,,2013-05-13 04:12:00,
2013-05-12 22:33:00,66.0,43.0,-100.00,NW,326,3.0,6.0,43,0.00,,,0.00,0.000000,,2013-05-13 04:33:00,
2013-05-12 22:42:00,66.0,43.0,-100.00,NW,326,3.0,6.0,43,0.00,,,0.00,0.000000,,2013-05-13 04:42:00,
2013-05-12 22:52:00,66.0,43.0,-100.00,NW,326,3.0,6.0,43,0.00,,,0.00,0.000000,,2013-05-13 04:52:00,
2013-05-12 23:02:00,66.0,43.0,-100.00,NW,326,3.0,6.0,43,0.00,,,0.00,0.000000,,2013-05-13 05:02:00,
2013-05-12 23:11:00,66.0,43.0,-100.00,NW,326,3.0,6.0,43,0.00,,,0.00,0.000000,,2013-05-13 05:11:00,
2013-05-12 23:42:00,71.0,47.0,-100.00,South,182,5.0,19.0,43,0.00,,,0.00,0.000000,,2013-05-13 05:42:00,
2013-05-12 23:52:00,71.0,47.0,-100.00,South,182,5.0,19.0,43,0.00,,,0.00,0.000000,,2013-05-13 05:52:00,